Location: Radomski Observatory
(40.2854°N, 79.5145°W)
Time: 23:09:49
(UTC-04:00)

Amateur Radio Satellites - All Passes

Search period start: 01 April 2015 22:39
Search period end: 02 April 2015 22:39
Location: Radomski Observatory, 40.2854°N, 79.5145°W

Satellite Date Start Highest point End Downlink Frequencies (MHz)
Time Altitude Azimuth
FUNcube-1 01 Apr 22:40:15 22:44:23 84° 257° (WSW) 22:48:35 145.935
CUBEBUG 1 01 Apr 22:54:21 22:57:36 21° 68° (ENE) 23:00:57 437.445
UWE-3 01 Apr 22:54:43 22:58:41 44° 262° (W) 23:02:41 435.000/436.395/437.385
ZACube-1 01 Apr 22:54:44 22:58:47 55° 260° (W) 23:02:54 437.345
VELOX 1 01 Apr 23:04:07 23:08:29 59° 74° (ENE) 23:12:51 145.980
CUBEBUG 2 01 Apr 23:08:18 23:11:48 25° 266° (W) 23:15:15 437.445
AISAT 01 Apr 23:10:24 23:14:50 72° 75° (ENE) 23:19:15 437.250
DUCHIFAT 1 01 Apr 23:15:12 23:16:42 12° 89° (E) 23:18:26 145.980
QB50P1 01 Apr 23:15:24 23:17:06 12° 89° (E) 23:19:02 145.935-145.965
HUMSAT D 01 Apr 23:15:47 23:19:50 65° 259° (W) 23:23:57 437.325/437.525
50 SAT 01 Apr 23:18:45 23:22:40 89° 61° (ENE) 23:26:37 437.505
UNISAT 6 01 Apr 23:20:31 23:24:38 31° 96° (E) 23:28:50 437.425
TIGRISAT 01 Apr 23:28:51 23:33:07 37° 97° (E) 23:37:29 435.000
QB50P2 01 Apr 23:30:30 23:33:32 19° 93° (E) 23:36:40 145.880/145.840
UKube-1 01 Apr 23:30:32 23:34:24 30° 264° (W) 23:38:14 .
BUGSAT 1 01 Apr 23:38:01 23:40:17 15° 91° (E) 23:42:43 437.445
ISS 01 Apr 23:38:45 23:41:21 22° 338° (NNW) 23:43:57 145.825
DX 1 01 Apr 23:46:35 23:49:53 20° 267° (W) 23:53:03 434.975-435.025
ESTCUBE 1 01 Apr 23:52:31 23:57:04 82° 257° (WSW) 00:01:40 437.505/2401.250
PCSat 01 Apr 23:56:36 00:02:04 84° 59° (ENE) 00:07:30 145.827
POPSAT HIP 1 01 Apr 23:57:42 00:01:40 38° 98° (E) 00:05:38 437.405
TISAT 1 02 Apr 00:00:14 00:03:30 23° 69° (ENE) 00:06:51 437.305
ANTELSAT 02 Apr 00:00:56 00:05:35 86° 103° (ESE) 00:10:16 437.575/2403.000
NANOSAT C BR1 02 Apr 00:06:35 00:10:41 48° 99° (E) 00:14:48 145.865
POLYITAN 1 02 Apr 00:14:15 00:18:28 61° 101° (E) 00:22:41 437.675
SPROUT 02 Apr 00:23:40 00:27:47 49° 74° (ENE) 00:31:57 437.525
CUBEBUG 1 02 Apr 00:29:45 00:33:48 35° 263° (W) 00:37:49 437.445
RS-15 02 Apr 00:41:46 00:49:26 20° 10° (N) 00:57:28 29.354- 29.394
VELOX 1 02 Apr 00:43:33 00:45:31 12° 271° (W) 00:47:13 145.980
DUCHIFAT 1 02 Apr 00:48:49 00:52:57 55° 286° (WNW) 00:57:04 145.980
QB50P1 02 Apr 00:49:15 00:53:23 53° 286° (WNW) 00:57:30 145.935-145.965
YUBILEINY 02 Apr 00:50:09 00:58:45 55° 76° (ENE) 01:07:20 435.215
SWISSCUBE 02 Apr 00:55:46 00:58:58 19° 65° (ENE) 01:02:19 437.505
UNISAT 6 02 Apr 00:57:28 01:01:19 26° 291° (WNW) 01:05:07 437.425
BEESAT 02 Apr 00:58:07 01:01:14 18° 65° (ENE) 01:04:31 436.000
QB50P2 02 Apr 01:05:41 01:09:34 34° 289° (WNW) 01:13:24 145.880/145.840
TIGRISAT 02 Apr 01:06:07 01:09:41 22° 292° (WNW) 01:13:11 435.000
BUGSAT 1 02 Apr 01:12:13 01:16:01 39° 288° (WNW) 01:19:46 437.445
ISS 02 Apr 01:17:32 01:18:41 11° 357° (N) 01:19:49 145.825
POPSAT HIP 1 02 Apr 01:34:20 01:37:19 18° 293° (WNW) 01:40:10 437.405
TISAT 1 02 Apr 01:35:29 01:39:11 29° 264° (W) 01:42:51 437.305
ANTELSAT 02 Apr 01:40:50 01:41:47 10° 297° (WNW) 01:42:29 437.575/2403.000
PCSat 02 Apr 01:42:35 01:44:51 12° 256° (WSW) 01:46:48 145.827
NANOSAT C BR1 02 Apr 01:43:44 01:46:12 15° 294° (WNW) 01:48:30 145.865
ITUPSAT 1 02 Apr 01:45:43 01:50:22 51° 72° (ENE) 01:55:03 437.325
SO-50 02 Apr 01:47:06 01:49:18 13° 35° (NE) 01:51:40 436.795
POLYITAN 1 02 Apr 01:52:08 01:53:57 12° 295° (WNW) 01:55:34 437.675
Oscar 19 02 Apr 01:53:32 01:57:26 22° 92° (E) 02:01:28 437.125/150
SPROUT 02 Apr 02:01:56 02:04:14 14° 270° (W) 02:06:20 437.525
SWISSCUBE 02 Apr 02:31:50 02:36:30 49° 261° (W) 02:41:10 437.505
BEESAT 02 Apr 02:34:05 02:38:44 50° 260° (W) 02:43:25 436.000
Gurwin Techsat 1B 02 Apr 02:40:39 02:43:41 16° 89° (E) 02:46:57 435.225
YUBILEINY 02 Apr 02:47:41 02:55:12 32° 275° (W) 03:02:25 435.215
ISS 02 Apr 02:53:55 02:56:06 17° 17° (NNE) 02:58:18 145.825
RS-15 02 Apr 02:55:24 03:06:03 43° 42° (NE) 03:17:16 29.354- 29.394
O/OREOS (USA 219) 02 Apr 03:03:19 03:06:26 19° 102° (ESE) 03:09:42 437.305
ITAMSAT 1 02 Apr 03:07:10 03:11:50 34° 96° (E) 03:16:31 435.822/435.867
KKS-1 02 Apr 03:15:49 03:20:15 85° 76° (ENE) 03:24:42 437.445
ITUPSAT 1 02 Apr 03:25:29 03:28:37 17° 269° (W) 03:31:34 437.325
SO-50 02 Apr 03:25:52 03:30:49 70° 56° (NE) 03:35:44 436.795
Oscar 19 02 Apr 03:32:06 03:37:01 44° 289° (WNW) 03:41:54 437.125/150
STARS 02 Apr 03:38:31 03:42:53 85° 253° (WSW) 03:47:18 437.465
MOZHAYETS 4 02 Apr 03:46:28 03:47:19 11° 62° (ENE) 03:48:26
HORYU 2 02 Apr 03:46:53 03:49:02 14° 90° (E) 03:51:25 437.375
VERMONT LUNAR 02 Apr 04:07:05 04:09:54 26° 154° (SSE) 04:12:45 437.305
AIST 1 02 Apr 04:07:39 04:11:54 49° 94° (E) 04:16:10
Gurwin Techsat 1B 02 Apr 04:18:56 04:24:12 63° 287° (WNW) 04:29:25 435.225
ISS 02 Apr 04:29:42 04:32:57 76° 36° (NE) 04:36:10 145.825
AUBIESAT-1 02 Apr 04:30:15 04:32:20 14° 57° (ENE) 04:34:40 437.475
AO-7 02 Apr 04:36:17 04:43:30 33° 96° (E) 04:50:54 29.400- 29.500
O/OREOS (USA 219) 02 Apr 04:41:13 04:45:35 41° 297° (WNW) 04:49:57 437.305
ITAMSAT 1 02 Apr 04:46:49 04:51:15 29° 293° (WNW) 04:55:36 435.822/435.867
JAS-2 02 Apr 04:50:44 04:57:44 39° 93° (E) 05:04:11 435.910
M-CUBED/EXP-1 PRIME 02 Apr 04:56:31 05:00:02 27° 63° (ENE) 05:03:52 437.505
RS-15 02 Apr 05:07:50 05:19:12 64° 245° (WSW) 05:30:58 29.354- 29.394
SO-50 02 Apr 05:08:10 05:10:52 14° 251° (WSW) 05:13:20 436.795
GONETS M04 02 Apr 05:09:44 05:14:55 17° 59° (ENE) 05:20:37
MOZHAYETS 4 02 Apr 05:19:18 05:23:56 83° 258° (WSW) 05:28:37
PHONESAT 2.4 02 Apr 05:20:51 05:24:07 36° 157° (SSE) 05:27:24 2401.200-2431.200
HORYU 2 02 Apr 05:21:41 05:26:06 55° 287° (WNW) 05:30:30 437.375
CUBESAT XI-V 02 Apr 05:43:09 05:45:35 15° 65° (ENE) 05:48:13 437.345
VERMONT LUNAR 02 Apr 05:44:00 05:47:21 78° 168° (SSE) 05:50:41 437.305
AIST 1 02 Apr 05:47:31 05:49:56 14° 291° (WNW) 05:52:11
AUBIESAT-1 02 Apr 06:02:29 06:06:35 64° 255° (WSW) 06:11:03 437.475
ISS 02 Apr 06:08:01 06:08:57 11° 230° (SW) 06:09:45 145.825
PRISM 02 Apr 06:23:32 06:27:05 27° 69° (ENE) 06:30:43 437.425
AO-7 02 Apr 06:28:39 06:36:40 54° 294° (WNW) 06:44:38 29.400- 29.500
STRAND 1 02 Apr 06:28:45 06:32:52 25° 67° (ENE) 06:37:05 437.568
M-CUBED/EXP-1 PRIME 02 Apr 06:31:19 06:34:53 27° 262° (W) 06:38:39 437.505
JAS-2 02 Apr 06:35:40 06:42:47 42° 293° (WNW) 06:49:15 435.910
CUSAT 1 02 Apr 06:50:50 06:53:56 17° 73° (ENE) 06:57:47 437.405
PHONESAT 2.4 02 Apr 06:58:46 07:02:19 89° 154° (SSE) 07:05:51 2401.200-2431.200
GONETS M04 02 Apr 07:04:31 07:13:24 84° 81° (E) 07:22:17
CUBESAT XI-V 02 Apr 07:17:55 07:22:35 61° 260° (W) 07:27:15 437.345
VERMONT LUNAR 02 Apr 07:21:41 07:25:03 89° 34° (NE) 07:28:23 437.305
RS-15 02 Apr 07:25:16 07:29:53 12° 262° (W) 07:33:17 29.354- 29.394
CUTE-I 02 Apr 07:37:22 07:42:42 72° 102° (ESE) 07:48:00 437.470
Cubesat XI-IV 02 Apr 07:38:49 07:44:09 75° 102° (ESE) 07:49:28 437.490
PRISM 02 Apr 07:59:04 08:02:33 24° 265° (W) 08:05:59 437.425
DANDE 02 Apr 08:04:29 08:08:53 62° 80° (E) 08:14:52 436.750
STRAND 1 02 Apr 08:07:05 08:11:54 39° 262° (W) 08:16:41 437.568
AO-7 02 Apr 08:24:48 08:27:49 12° 314° (NW) 08:30:21 29.400- 29.500
CUSAT 1 02 Apr 08:32:03 08:36:45 57° 262° (W) 08:42:59 437.405
PHONESAT 2.4 02 Apr 08:37:08 08:40:40 81° 190° (S) 08:44:12 2401.200-2431.200
BEESAT 3 02 Apr 08:51:48 08:54:08 15° 111° (ESE) 08:56:39 437.485
CANX-2 02 Apr 08:53:24 08:55:02 12° 88° (E) 08:56:55 2200.000
BRITE-PL 02 Apr 08:59:06 09:02:39 25° 95° (E) 09:06:25 437.365/2234.400
VERMONT LUNAR 02 Apr 08:59:27 09:02:35 37° 202° (SSW) 09:05:42 437.305
GONETS M04 02 Apr 09:03:22 09:09:17 19° 280° (W) 09:14:43
CUTE 1.7 + AOD 2 02 Apr 09:05:57 09:08:28 16° 90° (E) 09:11:09 437.475
AAUSAT CUBESAT 2 02 Apr 09:15:30 09:16:31 11° 88° (E) 09:17:47 437.432
CUTE-I 02 Apr 09:19:07 09:22:15 15° 298° (WNW) 09:25:08 437.470
Cubesat XI-IV 02 Apr 09:20:42 09:23:42 15° 298° (WNW) 09:26:27 437.490
GOMX 1 02 Apr 09:24:07 09:28:00 31° 96° (E) 09:32:09 467.674
SEEDS 02 Apr 09:28:12 09:31:35 23° 93° (E) 09:35:02 437.485
HO-68 02 Apr 09:35:54 09:42:40 43° 98° (E) 09:49:27 435.675
CINEMA 3 02 Apr 09:39:29 09:42:18 17° 91° (E) 09:45:21 145.822/145.860
COMPASS 1 02 Apr 09:43:58 09:47:36 28° 95° (E) 09:51:17 437.405
DANDE 02 Apr 09:49:34 09:52:12 14° 266° (W) 09:54:53 436.750
AIST 2 02 Apr 09:55:31 09:58:45 22° 112° (ESE) 10:02:07 435.215
BEESAT 2 02 Apr 09:55:46 09:59:50 65° 119° (ESE) 10:03:58 435.950
DELFI C3 02 Apr 10:03:17 10:05:12 13° 90° (E) 10:07:19 145.870
Oscar 11 02 Apr 10:10:38 10:14:03 23° 93° (E) 10:17:33 145.826/435.025
PHONESAT 2.4 02 Apr 10:15:40 10:18:46 29° 206° (SSW) 10:21:52 2401.200-2431.200
UNISAT 6 02 Apr 10:19:43 10:23:11 25° 69° (ENE) 10:26:48 437.425
QB50P2 02 Apr 10:24:04 10:26:21 15° 66° (ENE) 10:28:48 145.880/145.840
CANX-2 02 Apr 10:27:09 10:31:24 56° 286° (WNW) 10:35:38 2200.000
TIGRISAT 02 Apr 10:27:41 10:31:22 29° 70° (ENE) 10:35:10 435.000
BEESAT 3 02 Apr 10:27:52 10:31:50 47° 306° (NW) 10:35:52 437.485
BUGSAT 1 02 Apr 10:29:20 10:30:28 11° 65° (ENE) 10:31:49 437.445
FUNcube-1 02 Apr 10:29:45 10:32:57 20° 92° (E) 10:36:18 145.935
DOVE 4 02 Apr 10:30:04 10:34:30 74° 283° (WNW) 10:39:09 437.250
BRITE-PL 02 Apr 10:37:34 10:41:12 27° 289° (WNW) 10:44:55 437.365/2234.400
CUTE 1.7 + AOD 2 02 Apr 10:40:33 10:44:40 44° 287° (WNW) 10:48:45 437.475
ZACube-1 02 Apr 10:43:51 10:47:40 28° 95° (E) 10:51:37 437.345
UWE-3 02 Apr 10:44:42 10:48:49 36° 97° (E) 10:53:04 435.000/436.395/437.385
AAUSAT CUBESAT 2 02 Apr 10:48:26 10:52:38 60° 286° (WNW) 10:56:46 437.432
POPSAT HIP 1 02 Apr 10:50:27 10:53:59 27° 70° (ENE) 10:57:35 437.405
VELOX 1 02 Apr 10:57:38 10:58:55 11° 89° (E) 11:00:28 145.980
CUBEBUG 2 02 Apr 10:58:32 11:03:00 63° 100° (E) 11:07:35 437.445
NANOSAT C BR1 02 Apr 10:58:56 11:02:42 33° 71° (ENE) 11:06:31 145.865
50 SAT 02 Apr 10:59:04 11:00:28 12° 89° (E) 11:02:05 437.505
ANTELSAT 02 Apr 10:59:37 11:03:52 70° 75° (ENE) 11:08:13 437.575/2403.000
HUMSAT D 02 Apr 11:01:03 11:04:16 21° 93° (E) 11:07:37 437.325/437.525
GOMX 1 02 Apr 11:02:35 11:06:05 23° 290° (WNW) 11:09:38 467.674
AISAT 02 Apr 11:03:24 11:05:38 14° 90° (E) 11:08:05 437.250
SEEDS 02 Apr 11:03:40 11:07:26 29° 289° (WNW) 11:11:07 437.485
POLYITAN 1 02 Apr 11:06:56 11:10:54 42° 73° (ENE) 11:14:54 437.675
CINEMA 3 02 Apr 11:15:26 11:19:45 47° 286° (WNW) 11:24:14 145.822/145.860
UKube-1 02 Apr 11:18:09 11:22:17 43° 99° (E) 11:26:25 .
COMPASS 1 02 Apr 11:19:45 11:23:13 24° 290° (WNW) 11:26:36 437.405
HO-68 02 Apr 11:23:48 11:30:19 37° 296° (WNW) 11:36:42 435.675
AIST 2 02 Apr 11:33:11 11:37:10 36° 309° (NW) 11:41:10 435.215
DX 1 02 Apr 11:34:04 11:38:24 71° 102° (ESE) 11:42:43 434.975-435.025
BEESAT 2 02 Apr 11:35:56 11:38:27 15° 318° (NW) 11:40:52 435.950
DELFI C3 02 Apr 11:36:45 11:40:42 46° 287° (WNW) 11:44:36 145.870
DUCHIFAT 1 02 Apr 11:40:31 11:44:43 81° 257° (WSW) 11:48:56 145.980
QB50P1 02 Apr 11:41:15 11:45:27 77° 258° (WSW) 11:49:41 145.935-145.965
Oscar 11 02 Apr 11:46:25 11:50:17 31° 289° (WNW) 11:54:06 145.826/435.025
ESTCUBE 1 02 Apr 11:46:37 11:50:02 22° 93° (E) 11:53:34 437.505/2401.250
UNISAT 6 02 Apr 11:56:15 11:59:56 27° 265° (W) 12:03:37 437.425
QB50P2 02 Apr 11:57:50 12:01:55 48° 261° (W) 12:06:01 145.880/145.840
BUGSAT 1 02 Apr 12:01:24 12:05:31 63° 259° (W) 12:09:35 437.445
YUBILEINY 02 Apr 12:02:17 12:03:11 10° 75° (ENE) 12:04:55 435.215
TIGRISAT 02 Apr 12:04:45 12:08:11 23° 267° (W) 12:11:34 435.000
FUNcube-1 02 Apr 12:05:19 12:09:25 37° 288° (WNW) 12:13:34 145.935
CUBEBUG 1 02 Apr 12:18:53 12:22:59 42° 98° (E) 12:27:07 437.445
ZACube-1 02 Apr 12:20:15 12:23:59 26° 290° (WNW) 12:27:41 437.345
UWE-3 02 Apr 12:21:44 12:25:11 22° 291° (WNW) 12:28:34 435.000/436.395/437.385
POPSAT HIP 1 02 Apr 12:26:24 12:29:52 24° 266° (W) 12:33:16 437.405
VELOX 1 02 Apr 12:31:38 12:36:00 62° 286° (WNW) 12:40:21 145.980
50 SAT 02 Apr 12:31:47 12:35:44 51° 286° (WNW) 12:39:41 437.505
NANOSAT C BR1 02 Apr 12:35:35 12:38:41 19° 267° (W) 12:41:40 145.865
HUMSAT D 02 Apr 12:36:17 12:40:08 32° 289° (WNW) 12:43:57 437.325/437.525
CUBEBUG 2 02 Apr 12:37:03 12:39:17 13° 295° (WNW) 12:41:21 437.445
AISAT 02 Apr 12:38:19 12:42:36 51° 287° (WNW) 12:46:52 437.250
POLYITAN 1 02 Apr 12:44:31 12:47:05 15° 269° (W) 12:49:31 437.675
UKube-1 02 Apr 12:55:17 12:58:08 17° 294° (WNW) 13:00:51 .
PCSat 02 Apr 12:59:21 13:00:10 10° 103° (ESE) 13:01:22 145.827
Oscar 19 02 Apr 13:09:52 13:14:15 30° 68° (ENE) 13:18:44 437.125/150
O/OREOS (USA 219) 02 Apr 13:12:32 13:16:38 33° 60° (ENE) 13:20:44 437.305
DX 1 02 Apr 13:12:48 13:14:08 11° 297° (WNW) 13:15:16 434.975-435.025
TISAT 1 02 Apr 13:20:06 13:24:06 42° 98° (E) 13:28:07 437.305
ESTCUBE 1 02 Apr 13:22:56 13:27:02 34° 289° (WNW) 13:31:04 437.505/2401.250
SPROUT 02 Apr 13:46:40 13:50:57 76° 284° (WNW) 13:55:13 437.525
ITUPSAT 1 02 Apr 13:48:38 13:50:54 14° 89° (E) 13:53:25 437.325
YUBILEINY 02 Apr 13:49:50 13:58:28 65° 93° (E) 14:07:13 435.215
CUBEBUG 1 02 Apr 13:56:12 13:59:05 17° 294° (WNW) 14:01:50 437.445
Gurwin Techsat 1B 02 Apr 14:00:55 14:05:07 25° 66° (ENE) 14:09:26 435.225
AIST 1 02 Apr 14:17:23 14:18:56 12° 67° (ENE) 14:20:43
ITAMSAT 1 02 Apr 14:24:30 14:29:30 50° 72° (ENE) 14:34:33 435.822/435.867
SWISSCUBE 02 Apr 14:32:42 14:37:16 44° 98° (E) 14:41:48 437.505
BEESAT 02 Apr 14:34:51 14:39:24 42° 98° (E) 14:43:56 436.000
PCSat 02 Apr 14:37:28 14:42:53 87° 118° (ESE) 14:48:22 145.827
HORYU 2 02 Apr 14:45:39 14:47:31 13° 64° (ENE) 14:49:37 437.375
Oscar 19 02 Apr 14:49:01 14:53:34 31° 264° (W) 14:58:05 437.125/150
O/OREOS (USA 219) 02 Apr 14:52:18 14:55:55 23° 257° (WSW) 14:59:23 437.305
TISAT 1 02 Apr 14:56:56 14:59:36 16° 294° (WNW) 15:02:08 437.305
JAS-2 02 Apr 15:03:04 15:07:46 19° 57° (ENE) 15:12:58 435.910
KKS-1 02 Apr 15:08:37 15:11:28 17° 92° (E) 15:14:29 437.445
ITUPSAT 1 02 Apr 15:24:33 15:29:17 61° 287° (WNW) 15:33:59 437.325
STARS 02 Apr 15:29:50 15:32:50 18° 92° (E) 15:35:59 437.465
AO-7 02 Apr 15:34:38 15:42:18 45° 63° (ENE) 15:50:04 29.400- 29.500
Gurwin Techsat 1B 02 Apr 15:39:53 15:44:53 42° 262° (W) 15:49:55 435.225
YUBILEINY 02 Apr 15:48:42 15:56:05 28° 294° (WNW) 16:03:14 435.215
AIST 1 02 Apr 15:52:52 15:57:05 55° 266° (W) 16:01:14
ITAMSAT 1 02 Apr 16:05:33 16:09:21 19° 268° (W) 16:12:59 435.822/435.867
SWISSCUBE 02 Apr 16:11:20 16:14:51 20° 294° (WNW) 16:18:13 437.505
BEESAT 02 Apr 16:13:25 16:17:00 21° 294° (WNW) 16:20:26 436.000
HORYU 2 02 Apr 16:19:18 16:23:42 64° 259° (W) 16:28:08 437.375
PCSat 02 Apr 16:23:39 16:27:07 16° 318° (NW) 16:30:26 145.827
KKS-1 02 Apr 16:44:09 16:48:22 42° 288° (WNW) 16:52:34 437.445
JAS-2 02 Apr 16:44:40 16:51:45 89° 76° (ENE) 16:59:34 435.910
STARS 02 Apr 17:05:22 17:09:30 39° 288° (WNW) 17:13:35 437.465
BEESAT 3 02 Apr 17:11:16 17:12:36 11° 38° (NE) 17:14:04 437.485
MOZHAYETS 4 02 Apr 17:15:39 17:19:24 24° 93° (E) 17:23:12
CUTE-I 02 Apr 17:21:47 17:24:36 15° 62° (ENE) 17:27:39 437.470
RS-15 02 Apr 17:22:37 17:29:42 21° 103° (ESE) 17:37:27 29.354- 29.394
Cubesat XI-IV 02 Apr 17:23:11 17:26:11 16° 62° (ENE) 17:29:23 437.490
AO-7 02 Apr 17:27:24 17:35:11 42° 262° (W) 17:42:53 29.400- 29.500
SO-50 02 Apr 17:40:41 17:44:22 25° 113° (ESE) 17:48:16 436.795
AUBIESAT-1 02 Apr 17:46:39 17:48:12 12° 91° (E) 17:50:01 437.475
GONETS M04 02 Apr 18:11:54 18:17:14 19° 80° (E) 18:23:02
M-CUBED/EXP-1 PRIME 02 Apr 18:13:14 18:17:14 26° 98° (E) 18:21:11 437.505
BEESAT 2 02 Apr 18:15:56 18:19:44 34° 51° (NE) 18:23:31 435.950
AIST 2 02 Apr 18:17:44 18:20:21 16° 42° (NE) 18:23:02 435.215
JAS-2 02 Apr 18:33:25 18:38:00 17° 277° (W) 18:42:23 435.910
BEESAT 3 02 Apr 18:47:13 18:51:21 86° 53° (NE) 18:55:24 437.485
MOZHAYETS 4 02 Apr 18:52:31 18:56:41 32° 290° (WNW) 19:00:46
CUTE-I 02 Apr 18:58:46 19:04:08 75° 257° (WSW) 19:09:31 437.470
Cubesat XI-IV 02 Apr 19:00:23 19:05:45 72° 257° (WSW) 19:11:08 437.490
CUBESAT XI-V 02 Apr 19:15:29 19:19:39 34° 96° (E) 19:23:51 437.345
AUBIESAT-1 02 Apr 19:18:49 19:23:39 75° 289° (WNW) 19:28:15 437.475
SO-50 02 Apr 19:20:22 19:24:44 39° 310° (NW) 19:29:14 436.795
RS-15 02 Apr 19:29:50 19:40:44 89° 303° (WNW) 19:51:54 29.354- 29.394
PRISM 02 Apr 19:41:24 19:45:25 46° 99° (E) 19:49:24 437.425
M-CUBED/EXP-1 PRIME 02 Apr 19:47:43 19:52:09 35° 295° (WNW) 19:56:23 437.505
BEESAT 2 02 Apr 19:54:30 19:57:42 21° 248° (WSW) 20:00:46 435.950
AIST 2 02 Apr 19:55:11 19:59:24 63° 241° (WSW) 20:03:31 435.215
CUTE 1.7 + AOD 2 02 Apr 20:00:07 20:01:20 11° 64° (ENE) 20:02:47 437.475
GONETS M04 02 Apr 20:04:22 20:13:06 84° 279° (W) 20:21:55
HO-68 02 Apr 20:04:24 20:10:26 32° 63° (ENE) 20:16:38 435.675
BRITE-PL 02 Apr 20:09:58 20:13:49 28° 71° (ENE) 20:17:32 437.365/2234.400
STRAND 1 02 Apr 20:17:41 20:22:49 75° 102° (ESE) 20:27:54 437.568
SEEDS 02 Apr 20:20:50 20:23:22 16° 67° (ENE) 20:26:04 437.485
GOMX 1 02 Apr 20:32:29 20:36:17 31° 72° (ENE) 20:40:01 467.674
COMPASS 1 02 Apr 20:35:34 20:38:29 19° 68° (ENE) 20:41:31 437.405
CINEMA 3 02 Apr 20:42:25 20:44:18 13° 66° (ENE) 20:46:22 145.822/145.860
CUBESAT XI-V 02 Apr 20:53:16 20:56:58 23° 292° (WNW) 21:00:32 437.345
Oscar 11 02 Apr 21:05:42 21:08:30 18° 67° (ENE) 21:11:27 145.826/435.025
ISS 02 Apr 21:08:27 21:11:18 29° 135° (SE) 21:14:11 145.825
PRISM 02 Apr 21:18:08 21:20:33 15° 295° (WNW) 21:22:48 437.425
CANX-2 02 Apr 21:19:19 21:23:33 85° 258° (WSW) 21:27:51 2200.000
DANDE 02 Apr 21:19:40 21:22:30 86° 100° (E) 21:25:07 436.750
FUNcube-1 02 Apr 21:26:32 21:28:39 14° 66° (ENE) 21:30:58 145.935
CUTE 1.7 + AOD 2 02 Apr 21:32:33 21:36:46 66° 260° (W) 21:41:03 437.475
DOVE 4 02 Apr 21:35:40 21:39:56 77° 258° (WSW) 21:44:07 437.250
AAUSAT CUBESAT 2 02 Apr 21:38:31 21:42:41 84° 80° (E) 21:46:56 437.432
ZACube-1 02 Apr 21:40:18 21:43:20 20° 68° (ENE) 21:46:29 437.345
UWE-3 02 Apr 21:42:08 21:45:33 26° 70° (ENE) 21:49:06 435.000/436.395/437.385
CUSAT 1 02 Apr 21:44:03 21:46:10 21° 285° (WNW) 21:48:14 437.405
PCSat 02 Apr 21:44:55 21:46:41 12° 37° (NE) 21:48:40 145.827
RS-15 02 Apr 21:45:26 21:54:53 31° 329° (NNW) 22:04:22 29.354- 29.394
BRITE-PL 02 Apr 21:48:36 21:52:23 24° 265° (W) 21:55:55 437.365/2234.400
HO-68 02 Apr 21:50:58 21:57:54 51° 260° (W) 22:04:53 435.675
HUMSAT D 02 Apr 21:53:49 21:55:57 14° 66° (ENE) 21:58:16 437.325/437.525
SEEDS 02 Apr 21:54:50 21:58:52 43° 262° (W) 22:02:56 437.485
VELOX 1 02 Apr 21:55:53 21:56:57 11° 63° (ENE) 21:58:16 145.980
CUBEBUG 2 02 Apr 21:56:45 22:00:43 46° 73° (ENE) 22:04:44 437.445
STRAND 1 02 Apr 21:58:47 22:01:27 14° 298° (WNW) 22:03:54 437.568
AISAT 02 Apr 22:01:42 22:03:42 13° 64° (ENE) 22:05:55 437.250
GONETS M04 02 Apr 22:06:05 22:11:36 17° 301° (WNW) 22:16:39
COMPASS 1 02 Apr 22:10:04 22:13:57 35° 263° (W) 22:17:50 437.405
GOMX 1 02 Apr 22:11:09 22:14:31 21° 266° (W) 22:17:43 467.674
UKube-1 02 Apr 22:12:40 22:16:35 35° 71° (ENE) 22:20:34 .
CINEMA 3 02 Apr 22:17:06 22:21:09 50° 261° (W) 22:25:13 145.822/145.860
DELFI C3 02 Apr 22:23:33 22:27:37 83° 258° (WSW) 22:31:44 145.870
DX 1 02 Apr 22:29:03 22:33:19 57° 73° (ENE) 22:37:36 434.975-435.025
